| time (UTC) | temp F | wind direction | speed MPH | gust MPH | rain 1hr in | rain 24hr in | rain mn in | humidity % | barometer mb |
| 20260504231458 | 73 | 76 | 0.0 | 0.0 | 0.00 | 0.00 | 0.00 | 38 | 1010.6 |
| 20260504230529 | 74 | 275 | 1.0 | 2.0 | 0.00 | 0.00 | 0.00 | 37 | 1010.6 |
| 20260504225459 | 74 | 267 | 0.0 | 2.0 | 0.00 | 0.00 | 0.00 | 37 | 1010.6 |
| 20260504224458 | 75 | 218 | 1.0 | 3.0 | 0.00 | 0.00 | 0.00 | 35 | 1010.6 |
| 20260504223458 | 75 | 167 | 1.0 | 3.0 | 0.00 | 0.00 | 0.00 | 35 | 1010.7 |
| 20260504222459 | 75 | 267 | 2.0 | 2.0 | 0.00 | 0.00 | 0.00 | 35 | 1010.8 |
| 20260504221458 | 75 | 197 | 0.0 | 3.0 | 0.00 | 0.00 | 0.00 | 37 | 1010.8 |
| 20260504220458 | 75 | 344 | 1.0 | 1.0 | 0.00 | 0.00 | 0.00 | 38 | 1010.8 |
| 20260504215458 | 76 | 232 | 0.0 | 4.0 | 0.00 | 0.00 | 0.00 | 33 | 1010.9 |
| 20260504214458 | 76 | 211 | 1.0 | 3.0 | 0.00 | 0.00 | 0.00 | 35 | 1010.9 |
| 20260504213459 | 76 | 213 | 0.0 | 4.0 | 0.00 | 0.00 | 0.00 | 38 | 1010.8 |
| 20260504212459 | 76 | 296 | 0.0 | 3.0 | 0.00 | 0.00 | 0.00 | 34 | 1010.9 |
| 20260504211458 | 76 | 180 | 1.0 | 2.0 | 0.00 | 0.00 | 0.00 | 35 | 1010.9 |
| 20260504210529 | 76 | 292 | 2.0 | 3.0 | 0.00 | 0.00 | 0.00 | 34 | 1010.9 |
| 20260504205458 | 76 | 16 | 1.0 | 1.0 | 0.00 | 0.00 | 0.00 | 36 | 1010.7 |
| 20260504204529 | 77 | 215 | 0.0 | 4.0 | 0.00 | 0.00 | 0.00 | 32 | 1010.8 |
| 20260504203459 | 77 | 275 | 1.0 | 2.0 | 0.00 | 0.00 | 0.00 | 37 | 1010.7 |
| 20260504202459 | 77 | 171 | 0.0 | 2.0 | 0.00 | 0.00 | 0.00 | 33 | 1010.9 |
| 20260504200459 | 78 | 289 | 0.0 | 3.0 | 0.00 | 0.00 | 0.00 | 37 | 1011.1 |
| 20260504195458 | 77 | 12 | 2.0 | 2.0 | 0.00 | 0.00 | 0.00 | 37 | 1011.1 |
| 20260504194458 | 77 | 86 | 1.0 | 3.0 | 0.00 | 0.00 | 0.00 | 31 | 1011.2 |
| 20260504193459 | 76 | 340 | 1.0 | 3.0 | 0.00 | 0.00 | 0.00 | 37 | 1011.4 |
| 20260504192459 | 76 | 101 | 1.0 | 4.0 | 0.00 | 0.00 | 0.00 | 33 | 1011.7 |
| 20260504191459 | 76 | 231 | 0.0 | 5.0 | 0.00 | 0.00 | 0.00 | 33 | 1011.7 |
| 20260504190459 | 77 | 160 | 1.0 | 4.0 | 0.00 | 0.00 | 0.00 | 31 | 1011.8 |
| 20260504185458 | 76 | 178 | 3.0 | 3.0 | 0.00 | 0.00 | 0.00 | 38 | 1011.9 |
| 20260504184459 | 76 | 250 | 1.0 | 8.0 | 0.00 | 0.00 | 0.00 | 33 | 1012.2 |
| 20260504183459 | 76 | 208 | 3.0 | 4.0 | 0.00 | 0.00 | 0.00 | 35 | 1012.3 |
| 20260504182459 | 75 | 245 | 2.0 | 4.0 | 0.00 | 0.00 | 0.00 | 32 | 1012.4 |
| 20260504181459 | 76 | 136 | 0.0 | 3.0 | 0.00 | 0.00 | 0.00 | 33 | 1012.5 |
| 20260504180459 | 75 | 317 | 1.0 | 5.0 | 0.00 | 0.00 | 0.00 | 32 | 1012.6 |
| 20260504175459 | 75 | 340 | 1.0 | 3.0 | 0.00 | 0.00 | 0.00 | 45 | 1012.6 |
| 20260504174459 | 75 | 244 | 4.0 | 5.0 | 0.00 | 0.00 | 0.00 | 40 | 1012.8 |
| 20260504173459 | 74 | 236 | 2.0 | 3.0 | 0.00 | 0.00 | 0.00 | 41 | 1012.9 |
| 20260504172559 | 74 | 175 | 2.0 | 5.0 | 0.00 | 0.00 | 0.00 | 35 | 1013.0 |
| 20260504171459 | 72 | 152 | 1.0 | 4.0 | 0.00 | 0.00 | 0.00 | 35 | 1013.2 |
| 20260504170459 | 73 | 198 | 0.0 | 6.0 | 0.00 | 0.00 | 0.00 | 39 | 1013.3 |
| 20260504150459 | 67 | 207 | 3.0 | 3.0 | 0.00 | 0.00 | 0.00 | 40 | 1014.4 |
| 20260504140459 | 63 | 233 | 0.0 | 2.0 | 0.00 | 0.00 | 0.00 | 52 | 1014.4 |
| 20260504130459 | 59 | 254 | 0.0 | 2.0 | 0.00 | 0.00 | 0.00 | 59 | 1014.9 |
| 20260504110459 | 55 | 222 | 0.0 | 1.0 | 0.00 | 0.00 | 0.00 | 65 | 1015.6 |
| 20260504100459 | 53 | 219 | 0.0 | 1.0 | 0.00 | 0.00 | 0.00 | 70 | 1015.5 |
| 20260504081459 | 53 | 219 | 0.0 | 0.0 | 0.00 | 0.00 | 0.00 | 71 | 1015.7 |
| 20260504080459 | 53 | 219 | 0.0 | 0.0 | 0.00 | 0.00 | 0.00 | 72 | 1015.7 |
| 20260504050459 | 50 | 312 | 0.0 | 0.0 | 0.00 | 0.00 | 0.00 | 77 | 1015.9 |
| 20260504044459 | 48 | 312 | 0.0 | 0.0 | 0.00 | 0.00 | 0.00 | 77 | 1015.8 |
| 20260504043459 | 48 | 312 | 0.0 | 0.0 | 0.00 | 0.00 | 0.00 | 76 | 1016.0 |
| 20260504042459 | 48 | 312 | 0.0 | 0.0 | 0.00 | 0.00 | 0.00 | 75 | 1015.9 |
| 20260504040459 | 47 | 312 | 0.0 | 0.0 | 0.00 | 0.00 | 0.00 | 75 | 1015.8 |
| 20260504035459 | 47 | 312 | 0.0 | 0.0 | 0.00 | 0.00 | 0.00 | 74 | 1015.8 |
| 20260504034529 | 47 | 312 | 0.0 | 0.0 | 0.00 | 0.00 | 0.00 | 73 | 1015.8 |
| 20260504033459 | 47 | 312 | 0.0 | 0.0 | 0.00 | 0.00 | 0.00 | 73 | 1015.6 |
| 20260504032459 | 47 | 312 | 0.0 | 0.0 | 0.00 | 0.00 | 0.00 | 74 | 1015.5 |
| 20260504031459 | 48 | 312 | 0.0 | 0.0 | 0.00 | 0.00 | 0.00 | 72 | 1015.5 |
| 20260504030459 | 48 | 312 | 0.0 | 0.0 | 0.00 | 0.00 | 0.00 | 72 | 1015.5 |
| 20260504025459 | 47 | 312 | 0.0 | 0.0 | 0.00 | 0.00 | 0.00 | 72 | 1015.4 |
| 20260504024459 | 47 | 312 | 0.0 | 0.0 | 0.00 | 0.00 | 0.00 | 71 | 1015.5 |
| 20260504023500 | 48 | 312 | 0.0 | 0.0 | 0.00 | 0.00 | 0.00 | 70 | 1015.5 |
| 20260504022459 | 48 | 312 | 0.0 | 0.0 | 0.00 | 0.00 | 0.00 | 69 | 1015.4 |
| 20260504020500 | 49 | 312 | 0.0 | 0.0 | 0.00 | 0.00 | 0.00 | 67 | 1015.3 |
| 20260504015500 | 49 | 312 | 0.0 | 0.0 | 0.00 | 0.00 | 0.00 | 67 | 1015.3 |
| 20260504014500 | 49 | 312 | 0.0 | 0.0 | 0.00 | 0.00 | 0.00 | 65 | 1015.3 |
| 20260504013500 | 50 | 312 | 0.0 | 0.0 | 0.00 | 0.00 | 0.00 | 66 | 1015.3 |
| 20260504012500 | 50 | 312 | 0.0 | 0.0 | 0.00 | 0.00 | 0.00 | 65 | 1015.2 |
| 20260504011500 | 50 | 312 | 0.0 | 0.0 | 0.00 | 0.00 | 0.00 | 64 | 1015.1 |
| 20260504010500 | 50 | 312 | 0.0 | 0.0 | 0.00 | 0.00 | 0.00 | 63 | 1015.0 |
| 20260504005459 | 51 | 312 | 0.0 | 0.0 | 0.00 | 0.00 | 0.00 | 62 | 1015.0 |
| 20260504004500 | 52 | 312 | 0.0 | 0.0 | 0.00 | 0.00 | 0.00 | 59 | 1014.9 |
| 20260504003500 | 52 | 312 | 0.0 | 0.0 | 0.00 | 0.00 | 0.00 | 56 | 1014.8 |
| 20260504002500 | 53 | 312 | 0.0 | 0.0 | 0.00 | 0.00 | 0.00 | 54 | 1014.7 |
| 20260504001500 | 54 | 312 | 0.0 | 0.0 | 0.00 | 0.00 | 0.00 | 51 | 1014.7 |
| 20260504000500 | 55 | 312 | 0.0 | 0.0 | 0.00 | 0.00 | 0.00 | 50 | 1014.6 |
| 20260503234500 | 57 | 312 | 0.0 | 0.0 | 0.00 | 0.00 | 0.00 | 45 | 1014.4 |
| 20260503233500 | 58 | 301 | 0.0 | 0.0 | 0.00 | 0.00 | 0.00 | 42 | 1014.3 |
| 20260503232500 | 59 | 275 | 0.0 | 2.0 | 0.00 | 0.00 | 0.00 | 37 | 1014.3 |